Rome Ciampino, Italy

4:25 AM CEST on August 19, 2017 (GMT +0200)
Ciampino

Weather History for LIRA - November, 2012

Change the Weather History Date:

Friday, November 9, 2012

  Actual Average Record
Temperature  
Mean Temperature 53 °F -  
Max Temperature 62 °F 59 °F 70 °F (2014)
Min Temperature 44 °F 42 °F 37 °F (1998)
Degree Days  
Heating Degree Days 12    
Growing Degree Days 3 (Base 50)    
Moisture  
Dew Point 44 °F    
Average Humidity 77    
Maximum Humidity 94    
Minimum Humidity 48    
Precipitation  
Precipitation 0.00 in 0.16 in - ()
Sea Level Pressure  
Sea Level Pressure 30.12 in    
Wind  
Wind Speed 2 mph ()    
Max Wind Speed 4 mph    
Max Gust Speed -    
Visibility 6.2 miles    
Events      
Averages and records for this station are not official NWS values.
T = Trace of Precipitation, MM = Missing Value Source: Averaged Metar Reports

Daily Weather History Graph

Daily Weather History Graph

Search for Another Location

Airport or City:

Trip Planner

Search our weather history database for the weather conditions in past years. The results will help you decide how hot, cold, wet, or windy it might be!

Date:

Astronomy

Nov. 09, 2012 Rise Set
Actual Time 6:52 AM CET 4:54 PM CET
Civil Twilight 6:22 AM CET 5:24 PM CET
Nautical Twilight 5:49 AM CET 5:57 PM CET
Astronomical Twilight 5:16 AM CET 6:30 PM CET
Moon 1:28 AM CET (11/9) 2:02 PM CET (11/9)
Length of Visible Light 11h 01m
Length of Day
10h 02m
Waning Crescent, 25% of the Moon is Illuminated
Nov 9
Waning Crescent
Nov 13
New
Nov 20
First Quarter
Nov 28
Full
Dec 6
Last Quarter

Hourly Weather History & Observations

Time (CET) Temp. Dew Point Humidity Pressure Visibility Wind Dir Wind Speed Gust Speed Precip Events Conditions
12:15 AM 48.2 °F 46.4 °F 93% 30.18 in - Calm Calm - N/A   Clear
12:45 AM 48.2 °F 44.6 °F 87% 30.18 in - Calm Calm - N/A   Clear
1:15 AM 48.2 °F 46.4 °F 93% 30.18 in - NNE 3.5 mph - N/A   Clear
1:45 AM 48.2 °F 46.4 °F 93% 30.18 in - Calm Calm - N/A   Clear
2:15 AM 46.4 °F 44.6 °F 93% 30.18 in - East 1.2 mph - N/A   Clear
2:45 AM 46.4 °F 44.6 °F 93% 30.18 in - East 1.2 mph - N/A   Clear
3:15 AM 44.6 °F 42.8 °F 93% 30.15 in - North 1.2 mph - N/A   Clear
3:45 AM 44.6 °F 42.8 °F 93% 30.15 in - NNE 1.2 mph - N/A   Clear
4:15 AM 44.6 °F 42.8 °F 93% 30.12 in - NNE 1.2 mph - N/A   Clear
4:45 AM 44.6 °F 42.8 °F 93% 30.12 in - ENE 1.2 mph - N/A   Clear
5:15 AM 44.6 °F 42.8 °F 93% 30.12 in - NE 1.2 mph - N/A   Clear
5:45 AM 44.6 °F 42.8 °F 93% 30.12 in - North 2.3 mph - N/A   Clear
6:15 AM 44.6 °F 41.0 °F 87% 30.12 in - NNE 2.3 mph - N/A   Clear
6:45 AM 44.6 °F 42.8 °F 93% 30.12 in - NE 2.3 mph - N/A   Clear
7:15 AM 44.6 °F 42.8 °F 93% 30.12 in - ENE 2.3 mph - N/A   Clear
7:45 AM 44.6 °F 42.8 °F 93% 30.12 in 6.2 mi NE 2.3 mph - N/A   Partly Cloudy
8:15 AM 46.4 °F 44.6 °F 93% 30.15 in 6.2 mi NE 1.2 mph - N/A   Partly Cloudy
8:45 AM 48.2 °F 46.4 °F 93% 30.15 in 6.2 mi NE 2.3 mph - N/A   Partly Cloudy
9:15 AM 50.0 °F 48.2 °F 94% 30.15 in 6.2 mi North 3.5 mph - N/A   Partly Cloudy
9:45 AM 51.8 °F 50.0 °F 94% 30.15 in 6.2 mi NNE 3.5 mph - N/A   Scattered Clouds
10:15 AM 53.6 °F 51.8 °F 94% 30.15 in 6.2 mi North 3.5 mph - N/A   Partly Cloudy
10:45 AM 55.4 °F 51.8 °F 88% 30.12 in 6.2 mi NNE 3.5 mph - N/A   Partly Cloudy
11:15 AM 57.2 °F 53.6 °F 88% 30.12 in 6.2 mi North 3.5 mph - N/A   Partly Cloudy
11:45 AM 59.0 °F 51.8 °F 77% 30.12 in 6.2 mi NNE 3.5 mph - N/A   Partly Cloudy
12:15 PM 60.8 °F 51.8 °F 72% 30.12 in 6.2 mi North 2.3 mph - N/A   Partly Cloudy
12:45 PM 60.8 °F 48.2 °F 63% 30.12 in 6.2 mi North 2.3 mph - N/A   Partly Cloudy
1:15 PM 60.8 °F 46.4 °F 59% 30.09 in 6.2 mi WSW 1.2 mph - N/A   Partly Cloudy
1:45 PM 62.6 °F 44.6 °F 52% 30.09 in 6.2 mi WSW 2.3 mph - N/A   Partly Cloudy
2:15 PM 62.6 °F 44.6 °F 52% 30.09 in 6.2 mi NW 3.5 mph - N/A   Partly Cloudy
2:45 PM 60.8 °F 41.0 °F 48% 30.09 in - NNW 3.5 mph - N/A   Clear
3:15 PM 62.6 °F 42.8 °F 48% 30.09 in - NW 2.3 mph - N/A   Clear
3:45 PM 62.6 °F 42.8 °F 48% 30.06 in 6.2 mi WNW 2.3 mph - N/A   Partly Cloudy
4:15 PM 62.6 °F 42.8 °F 48% 30.06 in 6.2 mi WNW 1.2 mph - N/A   Partly Cloudy
4:45 PM 59.0 °F 41.0 °F 51% 30.06 in 6.2 mi North 1.2 mph - N/A   Partly Cloudy
5:15 PM 57.2 °F 41.0 °F 55% 30.09 in 6.2 mi Calm Calm - N/A   Partly Cloudy
5:45 PM 57.2 °F 41.0 °F 55% 30.09 in 6.2 mi ENE 1.2 mph - N/A   Partly Cloudy
6:15 PM 53.6 °F 42.8 °F 67% 30.09 in 6.2 mi East 3.5 mph - N/A   Partly Cloudy
8:45 PM 51.8 °F 42.8 °F 71% 30.09 in 6.2 mi Calm Calm - N/A   Partly Cloudy
9:15 PM 50.0 °F 42.8 °F 76% 30.09 in 6.2 mi ESE 3.5 mph - N/A   Partly Cloudy
9:45 PM 51.8 °F 42.8 °F 71% 30.09 in 6.2 mi ESE 3.5 mph - N/A   Partly Cloudy
10:15 PM 50.0 °F 39.2 °F 66% 30.09 in 6.2 mi ESE 2.3 mph - N/A   Partly Cloudy
10:45 PM 50.0 °F 39.2 °F 66% 30.09 in 6.2 mi Calm Calm - N/A   Partly Cloudy
11:15 PM 50.0 °F 39.2 °F 66% 30.09 in - SSE 1.2 mph - N/A   Clear
11:45 PM 50.0 °F 37.4 °F 62% 30.09 in - Calm Calm - N/A   Clear